Nampa, ID

10:16 AM MST on December 12, 2019 (GMT -0700)
Nampa

Weather History for KMAN - October, 2019

Change the Weather History Date:

Sunday, October 27, 2019

  Actual Average (KBOI) Record (KBOI)
Temperature  
Mean Temperature 35 °F -  
Max Temperature 46 °F 58 °F 87 °F (1887)
Min Temperature 24 °F 34 °F 19 °F (1919)
Degree Days  
Heating Degree Days 30    
Moisture  
Dew Point 12 °F    
Average Humidity 41    
Maximum Humidity 80    
Minimum Humidity 13    
Precipitation  
Precipitation 0.00 in - - ()
Sea Level Pressure  
Sea Level Pressure 30.23 in    
Wind  
Wind Speed 9 mph (NNW)    
Max Wind Speed 17 mph    
Max Gust Speed 22 mph    
Visibility 10 miles    
Events      
Averages and records for this station are not official NWS values.
T = Trace of Precipitation, MM = Missing Value Source: NWS Daily Summary

Daily Weather History Graph

Daily Weather History Graph

Search for Another Location

Airport or City:

Astronomy

Oct. 27, 2019 Rise Set
Actual Time 8:15 AM MDT 6:44 PM MDT
Civil Twilight 7:45 AM MDT 7:13 PM MDT
Nautical Twilight 7:11 AM MDT 7:47 PM MDT
Astronomical Twilight 6:38 AM MDT 8:20 PM MDT
Moon 7:25 AM MDT (10/27) 6:58 PM MDT (10/27)
Length of Visible Light 11h 28m
Length of Day
10h 29m
Waning Crescent, 0% of the Moon is Illuminated
Oct 27
Waning Crescent
Oct 27
New
Nov 4
First Quarter
Nov 12
Full
Nov 19
Last Quarter

Hourly Weather History & Observations

Time (MDT) Temp. Windchill Dew Point Humidity Pressure Visibility Wind Dir Wind Speed Gust Speed Precip Events Conditions
12:15 AM 37.4 °F 29.3 °F 26.6 °F 65% 30.10 in 10.0 mi NW 12.7 mph 18.4 mph N/A   Overcast
12:35 AM 37.4 °F 29.3 °F 26.6 °F 65% 30.11 in 10.0 mi NW 12.7 mph - N/A   Overcast
12:55 AM 37.4 °F 30.3 °F 26.6 °F 65% 30.11 in 10.0 mi NW 10.4 mph 16.1 mph N/A   Overcast
1:15 AM 37.4 °F 30.8 °F 26.6 °F 65% 30.12 in 10.0 mi WNW 9.2 mph - N/A   Overcast
1:35 AM 37.4 °F 31.4 °F 26.6 °F 65% 30.12 in 10.0 mi NW 8.1 mph - N/A   Mostly Cloudy
1:55 AM 37.4 °F 30.3 °F 26.6 °F 65% 30.13 in 10.0 mi NW 10.4 mph - N/A   Partly Cloudy
2:15 AM 37.4 °F 29.8 °F 26.6 °F 65% 30.13 in 10.0 mi NNW 11.5 mph - N/A   Clear
2:35 AM 35.6 °F 30.7 °F 24.8 °F 65% 30.14 in 10.0 mi NNW 5.8 mph 13.8 mph N/A   Clear
2:55 AM 35.6 °F 29.9 °F 24.8 °F 65% 30.15 in 10.0 mi NNE 6.9 mph - N/A   Clear
3:15 AM 33.8 °F 29.6 °F 24.8 °F 70% 30.16 in 10.0 mi North 4.6 mph - N/A   Clear
3:35 AM 33.8 °F 29.6 °F 24.8 °F 70% 30.16 in 10.0 mi NNW 4.6 mph - N/A   Clear
3:55 AM 33.8 °F 29.6 °F 24.8 °F 70% 30.17 in 10.0 mi NW 4.6 mph - N/A   Clear
4:15 AM 33.8 °F - 24.8 °F 70% 30.17 in 10.0 mi Calm Calm - N/A   Clear
4:35 AM 32.0 °F 28.7 °F 23.0 °F 69% 30.17 in 10.0 mi NNW 3.5 mph - N/A   Clear
4:55 AM 30.2 °F - 24.8 °F 80% 30.18 in 10.0 mi Calm Calm - N/A   Unknown
5:15 AM 30.2 °F - 23.0 °F 75% 30.19 in 10.0 mi Calm Calm - N/A   Unknown
5:35 AM 28.4 °F - 23.0 °F 80% 30.20 in 10.0 mi Calm Calm - N/A   Unknown
5:55 AM 32.0 °F 25.6 °F 19.4 °F 60% 30.20 in 10.0 mi NW 6.9 mph - N/A   Clear
6:15 AM 32.0 °F 24.2 °F 19.4 °F 60% 30.21 in 10.0 mi NW 9.2 mph - N/A   Clear
6:35 AM 32.0 °F 26.4 °F 17.6 °F 55% 30.22 in 10.0 mi NW 5.8 mph - N/A   Unknown
6:55 AM 32.0 °F 25.6 °F 17.6 °F 55% 30.22 in 10.0 mi WNW 6.9 mph - N/A   Unknown
7:15 AM 30.2 °F 23.4 °F 17.6 °F 60% 30.23 in 10.0 mi West 6.9 mph - N/A   Unknown
7:35 AM 30.2 °F 25.4 °F 15.8 °F 55% 30.22 in 10.0 mi Variable 4.6 mph - N/A   Unknown
7:55 AM 32.0 °F 25.6 °F 15.8 °F 51% 30.23 in 10.0 mi NNW 6.9 mph - N/A   Unknown
8:15 AM 32.0 °F 23.6 °F 15.8 °F 51% 30.23 in 10.0 mi NNW 10.4 mph - N/A   Clear
8:35 AM 32.0 °F 23.0 °F 15.8 °F 51% 30.24 in 10.0 mi NNW 11.5 mph - N/A   Clear
8:55 AM 32.0 °F 23.6 °F 15.8 °F 51% 30.26 in 10.0 mi NW 10.4 mph - N/A   Clear
9:15 AM 33.8 °F 25.3 °F 15.8 °F 48% 30.26 in 10.0 mi NNW 11.5 mph - N/A   Clear
9:35 AM 33.8 °F 25.3 °F 15.8 °F 48% 30.27 in 10.0 mi NNW 11.5 mph - N/A   Clear
9:55 AM 35.6 °F 27.5 °F 15.8 °F 44% 30.28 in 10.0 mi NNW 11.5 mph - N/A   Clear
10:15 AM 37.4 °F 28.5 °F 15.8 °F 41% 30.28 in 10.0 mi NNW 15.0 mph - N/A   Clear
10:35 AM 37.4 °F 30.8 °F 14.0 °F 38% 30.29 in 10.0 mi NNW 9.2 mph 16.1 mph N/A   Clear
10:55 AM 39.2 °F 31.2 °F 10.4 °F 31% 30.29 in 10.0 mi North 13.8 mph - N/A   Clear
11:15 AM 41.0 °F 33.1 °F 5.0 °F 23% 30.28 in 10.0 mi North 15.0 mph 21.9 mph N/A   Clear
11:35 AM 41.0 °F 33.5 °F 3.2 °F 21% 30.29 in 10.0 mi North 13.8 mph 19.6 mph N/A   Clear
11:55 AM 41.0 °F 33.9 °F 3.2 °F 21% 30.28 in 10.0 mi North 12.7 mph 21.9 mph N/A   Clear
12:15 PM 42.8 °F 34.8 °F 1.4 °F 18% 30.28 in 10.0 mi North 17.3 mph - N/A   Clear
12:35 PM 42.8 °F 35.1 °F 1.4 °F 18% 30.28 in 10.0 mi NNW 16.1 mph - N/A   Clear
12:55 PM 42.8 °F 35.8 °F 1.4 °F 18% 30.28 in 10.0 mi North 13.8 mph - N/A   Clear
1:15 PM 44.6 °F 38.8 °F 1.4 °F 17% 30.28 in 10.0 mi NNW 11.5 mph 20.7 mph N/A   Clear
1:35 PM 44.6 °F 38.4 °F -0.4 °F 15% 30.27 in 10.0 mi North 12.7 mph 19.6 mph N/A   Clear
1:55 PM 44.6 °F 39.2 °F -0.4 °F 15% 30.26 in 10.0 mi NNW 10.4 mph - N/A   Clear
2:15 PM 44.6 °F 38.8 °F -0.4 °F 15% 30.26 in 10.0 mi North 11.5 mph 17.3 mph N/A   Clear
2:35 PM 46.4 °F 41.5 °F -0.4 °F 14% 30.25 in 10.0 mi NNW 10.4 mph - N/A   Clear
2:55 PM 46.4 °F 39.8 °F -0.4 °F 14% 30.25 in 10.0 mi NNW 16.1 mph - N/A   Clear
3:15 PM 46.4 °F 40.1 °F -0.4 °F 14% 30.25 in 10.0 mi NNW 15.0 mph - N/A   Clear
3:35 PM 46.4 °F 41.1 °F -0.4 °F 14% 30.25 in 10.0 mi WNW 11.5 mph - N/A   Clear
3:55 PM 46.4 °F 41.9 °F -2.2 °F 13% 30.24 in 10.0 mi NW 9.2 mph - N/A   Clear
4:15 PM 46.4 °F 40.7 °F -0.4 °F 14% 30.24 in 10.0 mi NNW 12.7 mph - N/A   Clear
4:35 PM 46.4 °F 40.7 °F -0.4 °F 14% 30.24 in 10.0 mi NNW 12.7 mph - N/A   Clear
4:55 PM 46.4 °F 41.1 °F -0.4 °F 14% 30.24 in 10.0 mi NNW 11.5 mph 18.4 mph N/A   Clear
5:15 PM 46.4 °F 41.1 °F -0.4 °F 14% 30.24 in 10.0 mi NNW 11.5 mph 18.4 mph N/A   Clear
5:35 PM 44.6 °F 37.8 °F 1.4 °F 17% 30.24 in 10.0 mi NNW 15.0 mph - N/A   Clear
5:55 PM 44.6 °F 38.4 °F 1.4 °F 17% 30.24 in 10.0 mi NNW 12.7 mph - N/A   Clear
6:15 PM 44.6 °F 40.2 °F 1.4 °F 17% 30.24 in 10.0 mi NW 8.1 mph - N/A   Clear
6:35 PM 42.8 °F 37.5 °F 1.4 °F 18% 30.23 in 10.0 mi NNW 9.2 mph - N/A   Clear
6:55 PM 42.8 °F 38.0 °F 3.2 °F 19% 30.24 in 10.0 mi NW 8.1 mph - N/A   Clear
7:15 PM 41.0 °F 37.1 °F 3.2 °F 21% 30.24 in 10.0 mi NW 5.8 mph - N/A   Clear
7:35 PM 41.0 °F 37.1 °F 3.2 °F 21% 30.24 in 10.0 mi NW 5.8 mph - N/A   Unknown
7:55 PM 39.2 °F 35.0 °F 3.2 °F 22% 30.24 in 10.0 mi NW 5.8 mph - N/A   Clear
8:15 PM 39.2 °F 34.2 °F 5.0 °F 24% 30.24 in 10.0 mi West 6.9 mph - N/A   Clear
8:35 PM 37.4 °F 32.8 °F 6.8 °F 28% 30.25 in 10.0 mi West 5.8 mph - N/A   Unknown
8:55 PM 37.4 °F 33.8 °F 6.8 °F 28% 30.25 in 10.0 mi WNW 4.6 mph - N/A   Unknown
9:15 PM 37.4 °F 34.9 °F 8.6 °F 30% 30.25 in 10.0 mi NW 3.5 mph - N/A   Unknown
9:35 PM 35.6 °F - 8.6 °F 33% 30.25 in 10.0 mi Calm Calm - N/A   Unknown
9:55 PM 28.4 °F - 10.4 °F 47% 30.26 in 10.0 mi Calm Calm - N/A   Unknown
10:15 PM 32.0 °F - 10.4 °F 41% 30.26 in 10.0 mi Calm Calm - N/A   Clear
10:35 PM 26.6 °F - 12.2 °F 55% 30.26 in 10.0 mi Calm Calm - N/A   Clear
10:55 PM 28.4 °F - 12.2 °F 51% 30.26 in 10.0 mi Calm Calm - N/A   Unknown
11:15 PM 24.8 °F 16.9 °F 12.2 °F 59% 30.27 in 10.0 mi SE 6.9 mph - N/A   Unknown
11:35 PM 24.8 °F - 10.4 °F 54% 30.28 in 10.0 mi Calm Calm - N/A   Unknown
11:55 PM 24.8 °F 20.5 °F 14.0 °F 64% 30.28 in 10.0 mi SE 3.5 mph - N/A   Clear